User: anonymous   Login
Location: Unspecified
(0.0000°N, 0.0000°E)
Time: 14:49:43
(UTC+00:00)
Language:

LEMUR 2 JEFF - Orbit

View from above orbital plane
View from above orbital plane
View from above satellite
View from above satellite

Ground track
Ground track

The orbit data is extracted from the following two-line orbital elements,

1 41490U 98067JL  17082.86138582 +.15219034 +12544-4 +30912-3 0  9990
2 41490 051.5977 064.5171 0003073 162.0648 198.0222 16.46983386048626
Epoch (UTC): 23 March 2017 20:40:23
Eccentricity: 0.0003073
inclination: 51.5977°
perigee height: 145 km
apogee height: 149 km
right ascension of ascending node: 64.5171°
argument of perigee: 162.0648°
revolutions per day: 16.46983386
mean anomaly at epoch: 198.0222°
orbit number at epoch: 4862

The dashed part of the orbit path shows where the satellite is in the earth's shadow,  

DLR